Regional Weather Roundup
Issued by NWS

Home | Current Version | Previous Version | Text Only | Print | Product List | Glossary On
Versions: 1 2 3 4 5 6 7 8 9 10 11 12 13 14 15 16 17 18 19 20 21 22 23 24 25 26 27 28 29 30 31 32 33 34 35 36 37 38 39 40 41 42 43 44 45 46 47 48 49 50
000
ASUS43 KDTX 210010
RWRMI
MICHIGAN HOURLY REGIONAL WEATHER ROUNDUP
NATIONAL WEATHER SERVICE DETROIT/PONTIAC MI
800 PM EDT SUN JUN 20 2021

NOTE: "FAIR" INDICATES FEW OR NO CLOUDS BELOW 12,000 FEET WITH NO
SIGNIFICANT WEATHER AND/OR OBSTRUCTION TO VISIBILITY.

MIZ047>049-052>055-059>063-066>070-074>076-081>083-210100-
SOUTHEAST LOWER MICHIGAN

CITY           SKY/WX    TMP DP  RH WIND       PRES   REMARKS
ADRIAN         CLOUDY    83  68  60 CALM      29.64F
6HR MIN TEMP:  82; 6HR MAX TEMP:  86;

ANN ARBOR      PTSUNNY   81  65  58 CALM      29.63F
BAD AXE        PTSUNNY   70  57  63 E12       29.67F
6HR MIN TEMP:  70; 6HR MAX TEMP:  82;

DETROIT CITY   PTSUNNY   82  64  54 E9        29.64F
6HR MIN TEMP:  82; 6HR MAX TEMP:  89;

DETROIT        PTSUNNY   85  63  47 CALM      29.64F
6HR MIN TEMP:  81; 6HR MAX TEMP:  86;

FLINT          MOSUNNY   78  59  51 NE6       29.64F
6HR MIN TEMP:  78; 6HR MAX TEMP:  83;

GROSSE ILE     PTSUNNY   78  72  80 SE5       29.63F
6HR MIN TEMP:  77; 6HR MAX TEMP:  84;


CITY           SKY/WX    TMP DP  RH WIND       PRES   REMARKS
LANSING        PTSUNNY   79  63  57 NE8       29.63F
6HR MIN TEMP:  79; 6HR MAX TEMP:  86;

LAPEER         NOT AVBL
MASON          PTSUNNY   78  65  64 CALM      29.63F
6HR MIN TEMP:  78; 6HR MAX TEMP:  85;

MT. CLEMENS    PTSUNNY   78  70  75 NE5       29.64F
6HR MIN TEMP:  77; 6HR MAX TEMP:  82;

PONTIAC        MOSUNNY   79  63  57 NE7       29.65F
6HR MIN TEMP:  78; 6HR MAX TEMP:  83;

PORT HOPE        N/A     74  62  66 SE10      29.67F
6HR MIN TEMP:  72; 6HR MAX TEMP:  81;

PORT HURON     MOSUNNY   72  57  60 NE6       29.68F
TRI CITIES     MOSUNNY   78  60  53 S3        29.64F
6HR MIN TEMP:  78; 6HR MAX TEMP:  83;

MIDLAND        NOT AVBL
$$
MIZ043>046-050>051-056>058-064>065-071>073-077>080-210100-
SOUTHWEST LOWER MICHIGAN

CITY           SKY/WX    TMP DP  RH WIND       PRES   REMARKS
BATTLE CREEK   CLOUDY    80  62  54 E5        29.62F
6HR MIN TEMP:  80; 6HR MAX TEMP:  84;

BENTON HARBOR  CLOUDY    72  65  78 S16G29    29.59R THUNDER
6HR MIN TEMP:  71; 6HR MAX TEMP:  84;

HOLLAND        PTSUNNY   77  57  50 NE3       29.58F
6HR MIN TEMP:  77; 6HR MAX TEMP:  83;

GRAND RAPIDS   PTSUNNY   77  61  57 NE9       29.59F
6HR MIN TEMP:  77; 6HR MAX TEMP:  84;

KALAMAZOO      TSTM      79  67  66 CALM      29.61S
6HR MIN TEMP:  79; 6HR MAX TEMP:  85; 6HR PCP: TRACE;

$$
MIZ016>042-210100-
NORTHERN LOWER MICHIGAN

CITY           SKY/WX    TMP DP  RH WIND       PRES   REMARKS
GRAYLING       LGT RAIN  73  59  60 NE6       29.62F
HARBOR SPRINGS LGT RAIN  65  63  92 NE6       29.63F
HOUGHTON LAKE  PTSUNNY   72  62  71 SE5       29.65F
6HR MIN TEMP:  71; 6HR MAX TEMP:  80;

TRAVERSE CITY  CLOUDY    67  63  87 CALM      29.60F
6HR MIN TEMP:  67; 6HR MAX TEMP:  76; 6HR PCP:  0.02;

$$
MIZ007>008-015-210100-
EASTERN UPPER MICHIGAN

CITY           SKY/WX    TMP DP  RH WIND       PRES   REMARKS
MUNISING         N/A     62  56  80 NE5       29.59F
6HR MIN TEMP:  62; 6HR MAX TEMP:  66;

$$
MIZ004>006-011>014-085-210100-
CENTRAL UPPER MICHIGAN

CITY           SKY/WX    TMP DP  RH WIND       PRES   REMARKS
SAWYER-GWINN   LGT RAIN  61  54  77 NE6       29.60F
$$
MIZ001>003-009>011-084-210100-
WESTERN UPPER MICHIGAN

CITY           SKY/WX    TMP DP  RH WIND       PRES   REMARKS
IRON MOUNTAIN  LGT RAIN  64  58  80 SE8       29.56F
6HR MIN TEMP:  63; 6HR MAX TEMP:  74; 6HR PCP: TRACE;

HOUGHTON       RAIN      58  55  90 E5        29.63F FOG
6HR MIN TEMP:  58; 6HR MAX TEMP:  65; 6HR PCP:  0.29;

COPPER HARBOR    N/A     56  54  93 VRB3      29.63F
6HR MIN TEMP:  56; 6HR MAX TEMP:  63; 6HR PCP:  0.23;

$$

ABBREVIATIONS USED IN REMARKS
   TC - TEMPERATURE IN CELSIUS
  WCI - WIND CHILL INDEX
   HX - HEAT INDEX
  VSB - VISIBILITY




USA.gov is the U.S. government's official web portal to all federal, state and local government web resources and services.